Weather History for Covington, KY

Change the Weather History Date:

Wednesday, January 1, 2014

  Actual Average Record
Temperature  
Mean Temperature 35 °F 31 °F  
Max Temperature 47 °F 39 °F 69 °F (1876)
Min Temperature 23 °F 24 °F -4 °F (1968)
Degree Days  
Heating Degree Days 30 34  
Month to date heating degree days 30 34  
Since 1 July heating degree days 1981 1953  
Cooling Degree Days 0 0  
Month to date cooling degree days 0 0  
Year to date cooling degree days 0 0  
Moisture  
Dew Point 24 °F    
Average Humidity 67    
Maximum Humidity 88    
Minimum Humidity 45    
Precipitation  
Precipitation 0.00 in 0.11 in 1.54 in (1948)
Month to date precipitation 0.00 0.11  
Year to date precipitation 0.00 0.11  
Snow  
Snow 0.00 in 0.20 in 7.60 in (1964)
Month to date snowfall 0.0 0.2  
Since 1 July snowfall 12.8 5.8  
Snow Depth 0.00 in    
Sea Level Pressure  
Sea Level Pressure 30.18 in    
Wind  
Wind Speed 5 mph (South)    
Max Wind Speed 14 mph    
Max Gust Speed 18 mph    
Visibility 10 miles    
Events      
T = Trace of Precipitation, MM = Missing Value Source: NWS Daily Summary

Daily Weather History Graph

Daily Weather History Graph

Search for Another Location

Airport:

Trip Planner

Search our weather history database for the weather conditions in past years. The results will help you decide how hot, cold, wet, or windy it might be!

Date:

Astronomy

Jan. 01, 2014 Rise Set
Actual Time 7:57 AM EST 5:27 PM EST
Civil Twilight 7:27 AM EST 5:56 PM EST
Nautical Twilight 6:54 AM EST 6:30 PM EST
Astronomical Twilight 6:21 AM EST 7:02 PM EST
Moon 7:47 AM EST (1/1) 6:10 PM EST (1/1)
Length of Visible Light 10h 29m
Length of Day
9h 29m
New Moon, 0% of the Moon is Illuminated
Jan 1
New Moon
Jan 7
First Quarter
Jan 15
Full
Jan 24
Last Quarter
Jan 30
New

Hourly Weather History & Observations

Time (EST) Temp. Windchill Dew Point Humidity Pressure Visibility Wind Dir Wind Speed Gust Speed Precip Events Conditions
12:52 AM 28.9 °F 23.9 °F 19.9 °F 69% 30.28 in 10.0 mi SW 4.6 mph - N/A   Clear
1:52 AM 27.0 °F - 19.9 °F 75% 30.29 in 10.0 mi Calm Calm - N/A   Partly Cloudy
2:52 AM 23.0 °F 18.4 °F 19.9 °F 88% 30.29 in 10.0 mi SE 3.5 mph - N/A   Mostly Cloudy
3:52 AM 25.0 °F - 19.9 °F 81% 30.27 in 10.0 mi Calm Calm - N/A   Overcast
4:52 AM 25.0 °F 18.1 °F 21.0 °F 85% 30.25 in 10.0 mi South 5.8 mph - N/A   Mostly Cloudy
5:52 AM 26.1 °F 17.6 °F 21.0 °F 81% 30.25 in 10.0 mi South 8.1 mph - N/A   Partly Cloudy
6:52 AM 28.0 °F 19.3 °F 21.9 °F 78% 30.26 in 10.0 mi South 9.2 mph - N/A   Partly Cloudy
7:52 AM 25.0 °F 17.1 °F 21.0 °F 85% 30.25 in 10.0 mi South 6.9 mph - N/A   Partly Cloudy
8:52 AM 28.0 °F 24.2 °F 23.0 °F 81% 30.26 in 9.0 mi ESE 3.5 mph - N/A   Partly Cloudy
9:52 AM 33.1 °F 25.5 °F 26.1 °F 75% 30.26 in 10.0 mi South 9.2 mph - N/A   Mostly Cloudy
10:52 AM 37.9 °F 32.1 °F 27.0 °F 65% 30.25 in 10.0 mi SSW 8.1 mph - N/A   Scattered Clouds
11:52 AM 39.9 °F 33.4 °F 27.0 °F 60% 30.22 in 10.0 mi SSW 10.4 mph - N/A   Mostly Cloudy
12:52 PM 43.0 °F 37.7 °F 28.0 °F 56% 30.18 in 10.0 mi South 9.2 mph - N/A   Mostly Cloudy
1:52 PM 45.0 °F 40.6 °F 27.0 °F 49% 30.14 in 10.0 mi South 8.1 mph - N/A   Mostly Cloudy
2:52 PM 46.0 °F 40.2 °F 26.1 °F 46% 30.12 in 10.0 mi South 12.7 mph - N/A   Mostly Cloudy
3:52 PM 45.0 °F 40.1 °F 24.1 °F 44% 30.10 in 10.0 mi SSW 9.2 mph - N/A   Mostly Cloudy
4:52 PM 43.0 °F 39.5 °F 25.0 °F 49% 30.10 in 10.0 mi SW 5.8 mph - N/A   Mostly Cloudy
5:52 PM 41.0 °F 37.1 °F 26.1 °F 55% 30.11 in 10.0 mi South 5.8 mph - N/A   Overcast
6:52 PM 39.9 °F 37.8 °F 25.0 °F 55% 30.10 in 10.0 mi South 3.5 mph - N/A   Overcast
7:52 PM 39.0 °F - 25.0 °F 57% 30.09 in 10.0 mi Calm Calm - N/A   Overcast
8:52 PM 39.0 °F - 25.0 °F 57% 30.08 in 10.0 mi Calm Calm - N/A   Overcast
9:52 PM 37.0 °F - 26.1 °F 65% 30.06 in 10.0 mi Calm Calm - N/A   Overcast
10:52 PM 37.9 °F - 24.1 °F 57% 30.04 in 10.0 mi Calm Calm - N/A   Overcast
11:52 PM 36.0 °F - 26.1 °F 67% 30.01 in 10.0 mi Calm Calm - N/A   Overcast